Find Starlink 11305

NORAD ID: 61247 Int'l Des: 2024-175 Owner: SPXS Country: US Constellation: starlink operational
LEOCIRCULAR

当前视图

正在加载3D地球...

About Starlink 11305

Starlink 11305 (NORAD 61247) is a starlink constellation satellite (v2 mini d2c) launched Sep 25, 2024 by SPXS of US. It operates in LEO, CIRCULAR orbit with a mass of 960.00 kg.

关于 Starlink 11305

正在加载描述...

即将过境

Passes for default location (London). Set your location on the main map for personalized predictions.

高度历史

Loading altitude history...

两行轨道根数

1 61247U 24175E 26166.89587776 .00000666 00000-0 10352-4 0 9990
2 61247 53.1585 291.9412 0000721 76.1623 283.9475 15.69708542 98790
Epoch: Jun 15, 2026 • Age: 8 hours

当前状态

高度 365.0 km
速度 7.70 km/s
星下点 49.43°N, 61.24°E
发射日期 Sep 25, 2024
运行时间 1.7 years
类型 internet

技术详情

分类 Payload
质量 960.00 kg
干质量 910.00 kg
总质量 960.00 kg
长度 0.30 m
直径 4.10 m
跨度 29.00 m
形状 Box + pan
制造商 SPXS
平台类型 Starlink V2MD
阶段状态 In Orbit
所有者/国家 SPXS/US

Most Searched